sat.trackr.live / text

‹ back to catalog

STARLINK-37608

NORAD 69037 · 2026-101N

PAYLOAD ACTIVE UNKNOWN

§ Identity

Operator
Country
US
Launch date
2026-05-06
Launch site
AFWTR
Launch vehicle
Mass (kg)
RCS (m²)

Purposes: comms

External: N2YO · Heavens-Above · Gunter

§ Orbital elements

Epoch: 2026-05-24T13:40:49.512000Z

Period
91.47 min
Inclination
97.2844°
Eccentricity
0.0002304
Mean motion
15.74321459 rev/d
Perigee alt
345.0 km
Apogee alt
348.1 km
Semi-major
6,724.7 km
B*
-5.5474e-3
RAAN
359.3073°
Arg perigee
105.5036°
Mean anomaly
254.6484°
Rev number
292

§ Raw data

STARLINK-376081 69037U 26101N   26144.57001750 -.00732339  00000+0 -55474-2 0  99922 69037  97.2844 359.3073 0002304 105.5036 254.6484 15.74321459  2927

JSON: /api/v1/satellites/69037 · /tle

For live sub-satellite position, see the globe view (requires WebGL).

§ Visibility from observer

Set your observer location to see the next 7 days of passes ≥ 10°. The values pass through the URL so the page stays shareable.

No JS? Fill the form by hand. The geolocation button needs JavaScript.